W4SNA-4 Weather Reports


Display with metric or nautical units.
time (UTC)temp
F
wind
direction
speed
MPH
gust
MPH
rain 1hr
in
rain 24hr
in
rain mn
in
humidity
%
barometer
mb
20260831224437 86 0 0.0 0.0 0.00 0.00 0.00 71 1014.2
20260831223933 86 0 0.0 0.0 0.00 0.00 0.00 71 1014.3
20260831223432 86 0 0.0 0.0 0.00 0.00 0.00 70 1014.3
20260831222932 86 0 0.0 0.0 0.00 0.00 0.00 70 1014.3
20260831222443 86 0 0.0 0.0 0.00 0.00 0.00 70 1014.4
20260831221932 86 0 0.0 0.0 0.00 0.00 0.00 70 1014.4
20260831221436 86 0 0.0 0.0 0.00 0.00 0.00 70 1014.4
20260831220932 86 0 0.0 0.0 0.00 0.00 0.00 68 1014.5
20260831220432 86 0 0.0 0.0 0.00 0.00 0.00 68 1014.5
20260831215932 86 0 0.0 0.0 0.00 0.00 0.00 67 1014.5
20260831215443 86 0 0.0 0.0 0.00 0.00 0.00 67 1014.5
20260831214933 86 0 0.0 0.0 0.00 0.00 0.00 67 1014.5
20260831214439 86 0 0.0 0.0 0.00 0.00 0.00 67 1014.5
20260831213933 87 0 0.0 0.0 0.00 0.00 0.00 66 1014.5
20260831213432 87 0 0.0 0.0 0.00 0.00 0.00 65 1014.5
20260831212932 87 0 0.0 0.0 0.00 0.00 0.00 65 1014.5
20260831212443 87 0 0.0 0.0 0.00 0.00 0.00 65 1014.5
20260831211932 87 0 0.0 0.0 0.00 0.00 0.00 66 1014.5
20260831211252 87 0 0.0 0.0 0.00 0.00 0.00 66 1014.5
20260831210751 87 0 0.0 0.0 0.00 0.00 0.00 64 1014.5
20260831210252 87 0 0.0 0.0 0.00 0.00 0.00 63 1014.5
20260831205751 87 0 0.0 0.0 0.00 0.00 0.00 62 1014.5
20260831205252 87 0 0.0 0.0 0.00 0.00 0.00 62 1014.5
20260831204752 87 0 0.0 0.0 0.00 0.00 0.00 64 1014.5
20260831204251 87 0 0.0 0.0 0.00 0.00 0.00 63 1014.5
20260831203754 87 0 0.0 0.0 0.00 0.00 0.00 62 1014.7
20260831203251 88 0 0.0 0.0 0.00 0.00 0.00 62 1014.7
20260831202752 88 0 0.0 0.0 0.00 0.00 0.00 62 1014.7
20260831202252 88 0 0.0 0.0 0.00 0.00 0.00 62 1015.0
20260831201751 88 0 0.0 0.0 0.00 0.00 0.00 62 1015.0
20260831201252 88 0 0.0 0.0 0.00 0.00 0.00 61 1015.0
20260831200752 88 0 0.0 0.0 0.00 0.00 0.00 61 1015.0
20260831200258 88 0 0.0 0.0 0.00 0.00 0.00 61 1015.0
20260831195752 88 0 0.0 0.0 0.00 0.00 0.00 58 1015.0
20260831195251 88 0 0.0 0.0 0.00 0.00 0.00 61 1015.1
20260831194752 88 0 0.0 0.0 0.00 0.00 0.00 61 1015.1
20260831194251 88 0 0.0 0.0 0.00 0.00 0.00 57 1015.1
20260831193753 88 0 0.0 0.0 0.00 0.00 0.00 61 1015.1
20260831193254 88 0 0.0 0.0 0.00 0.00 0.00 60 1015.1
20260831192751 88 0 0.0 0.0 0.00 0.00 0.00 60 1015.1
20260831192254 87 0 0.0 0.0 0.00 0.00 0.00 59 1015.3
20260831191752 87 0 0.0 0.0 0.00 0.00 0.00 62 1015.3
20260831191252 87 0 0.0 0.0 0.00 0.00 0.00 63 1015.3
20260831190752 87 0 0.0 0.0 0.00 0.00 0.00 66 1015.5
20260831190253 87 0 0.0 0.0 0.00 0.00 0.00 65 1015.5
20260831185751 87 0 0.0 0.0 0.00 0.00 0.00 65 1015.5
20260831185252 86 0 0.0 0.0 0.00 0.00 0.00 63 1015.6
20260831184751 86 0 0.0 0.0 0.00 0.00 0.00 69 1015.6
20260831184258 86 0 0.0 0.0 0.00 0.00 0.00 67 1015.6
20260831183753 86 0 0.0 0.0 0.00 0.00 0.00 68 1015.7
20260831183251 86 0 0.0 0.0 0.00 0.00 0.00 67 1015.7
20260831182752 86 0 0.0 0.0 0.00 0.00 0.00 69 1015.7
20260831182256 86 0 0.0 0.0 0.00 0.00 0.00 70 1015.9
20260831181751 86 0 0.0 0.0 0.00 0.00 0.00 67 1015.9
20260831181251 86 0 0.0 0.0 0.00 0.00 0.00 64 1015.9
20260831180751 86 0 0.0 0.0 0.00 0.00 0.00 64 1016.1
20260831180257 87 0 0.0 0.0 0.00 0.00 0.00 68 1016.1
20260831175753 87 0 0.0 0.0 0.00 0.00 0.00 66 1016.1
20260831175257 87 0 0.0 0.0 0.00 0.00 0.00 67 1016.1
20260831174752 87 0 0.0 0.0 0.00 0.00 0.00 68 1016.1
20260831174251 87 0 0.0 0.0 0.00 0.00 0.00 68 1016.1
20260831173754 86 0 0.0 0.0 0.00 0.00 0.00 68 1016.2
20260831173252 86 0 0.0 0.0 0.00 0.00 0.00 66 1016.2
20260831172751 86 0 0.0 0.0 0.00 0.00 0.00 68 1016.2
20260831172252 86 0 0.0 0.0 0.00 0.00 0.00 68 1016.3
20260831171751 86 0 0.0 0.0 0.00 0.00 0.00 69 1016.3
20260831171251 86 0 0.0 0.0 0.00 0.00 0.00 68 1016.3
20260831170800 86 0 0.0 0.0 0.00 0.00 0.00 69 1016.2
20260831170207 86 0 0.0 0.0 0.00 0.00 0.00 72 1016.2
20260831165706 86 0 0.0 0.0 0.00 0.00 0.00 70 1016.2
20260831165224 85 0 0.0 0.0 0.00 0.00 0.00 71 1016.4
20260831164707 85 0 0.0 0.0 0.00 0.00 0.00 71 1016.4
20260831164205 85 0 0.0 0.0 0.00 0.00 0.00 71 1016.4
20260831163705 85 0 0.0 0.0 0.00 0.00 0.00 71 1016.7
20260831163209 86 0 0.0 0.0 0.00 0.00 0.00 73 1016.7
20260831162705 86 0 0.0 0.0 0.00 0.00 0.00 71 1016.7
20260831162207 86 0 0.0 0.0 0.00 0.00 0.00 71 1016.7
20260831161705 86 0 0.0 0.0 0.00 0.00 0.00 72 1016.7
20260831161208 86 0 0.0 0.0 0.00 0.00 0.00 71 1016.7
20260831160707 86 0 0.0 0.0 0.00 0.00 0.00 73 1016.7
20260831160208 86 0 0.0 0.0 0.00 0.00 0.00 73 1016.7
20260831155707 86 0 0.0 0.0 0.00 0.00 0.00 75 1016.7
20260831155207 85 0 0.0 0.0 0.00 0.00 0.00 75 1016.7
20260831154704 84 0 0.0 0.0 0.00 0.00 0.00 76 1016.7
20260831154207 84 0 0.0 0.0 0.00 0.00 0.00 77 1016.7
20260831153705 84 0 0.0 0.0 0.00 0.00 0.00 76 1016.7
20260831153208 83 0 0.0 0.0 0.00 0.00 0.00 78 1016.7
20260831152826 83 0 0.0 0.0 0.00 0.00 0.00 78 1016.8
20260831152706 83 0 0.0 0.0 0.00 0.00 0.00 78 1016.7
20260831152205 83 0 0.0 0.0 0.00 0.00 0.00 78 1016.8
20260831151705 83 0 0.0 0.0 0.00 0.00 0.00 79 1016.8
20260831151208 82 0 0.0 0.0 0.00 0.00 0.00 81 1016.8
20260831150705 82 0 0.0 0.0 0.00 0.00 0.00 81 1016.8
20260831150208 81 0 0.0 0.0 0.00 0.00 0.00 79 1016.8
20260831145707 81 0 0.0 0.0 0.00 0.00 0.00 81 1016.8
20260831145207 81 0 0.0 0.0 0.00 0.00 0.00 83 1016.8
20260831144705 80 0 0.0 0.0 0.00 0.00 0.00 84 1016.8
20260831144211 80 0 0.0 0.0 0.00 0.00 0.00 85 1016.8
20260831143713 79 0 0.0 0.0 0.00 0.00 0.00 85 1016.8
20260831143219 78 0 0.0 0.0 0.00 0.00 0.00 86 1016.8
20260831142739 78 0 0.0 0.0 0.00 0.00 0.00 86 1016.8
20260831142707 78 0 0.0 0.0 0.00 0.00 0.00 86 1016.8
20260831142212 78 0 0.0 0.0 0.00 0.00 0.00 87 1016.8
20260831141709 77 0 0.0 0.0 0.00 0.00 0.00 88 1016.8
20260831141206 77 0 0.0 0.0 0.00 0.00 0.00 89 1016.8
20260831140707 76 0 0.0 0.0 0.00 0.00 0.00 90 1016.8
20260831140207 76 0 0.0 0.0 0.00 0.00 0.00 91 1016.8
20260831135709 75 0 0.0 0.0 0.00 0.00 0.00 91 1016.8
20260831135112 75 0 0.0 0.0 0.00 0.00 0.00 92 1016.8
20260831134617 74 0 0.0 0.0 0.00 0.00 0.00 93 1016.8
20260831133610 74 0 0.0 1.0 0.00 0.00 0.00 94 1016.7
20260831132612 73 0 0.0 0.0 0.00 0.00 0.00 95 1016.7
20260831132120 73 0 0.0 0.0 0.00 0.00 0.00 95 1016.8
20260831131616 73 0 0.0 0.0 0.00 0.00 0.00 95 1016.8
20260831131113 73 0 0.0 0.0 0.00 0.00 0.00 95 1016.8
20260831130610 72 0 0.0 0.0 0.00 0.00 0.00 95 1016.6
20260831130110 72 0 0.0 0.0 0.00 0.00 0.00 95 1016.6
20260831125612 72 0 0.0 0.0 0.00 0.00 0.00 95 1016.6
20260831125145 72 0 0.0 0.0 0.00 0.00 0.00 95 1016.6
20260831125110 72 0 0.0 0.0 0.00 0.00 0.00 95 1016.6
20260831124610 72 0 0.0 0.0 0.00 0.00 0.00 95 1016.6
20260831124112 72 0 0.0 0.0 0.00 0.00 0.00 95 1016.6
20260831123610 72 0 0.0 0.0 0.00 0.00 0.00 96 1016.5
20260831123110 72 0 0.0 0.0 0.00 0.00 0.00 96 1016.5
20260831122612 72 0 0.0 0.0 0.00 0.00 0.00 96 1016.5
20260831122111 72 0 0.0 0.0 0.00 0.00 0.00 96 1016.4
20260831121612 72 0 0.0 0.0 0.00 0.00 0.00 96 1016.4
20260831121112 72 0 0.0 0.0 0.00 0.00 0.00 96 1016.4
20260831120618 72 0 0.0 0.0 0.00 0.00 0.00 96 1016.4
20260831120113 72 0 0.0 0.0 0.00 0.00 0.00 96 1016.4
20260831115612 72 0 0.0 0.0 0.00 0.00 0.00 96 1016.4
20260831115110 72 0 0.0 0.0 0.00 0.00 0.00 96 1016.4
20260831114613 72 0 0.0 0.0 0.00 0.00 0.00 96 1016.4
20260831114133 72 0 0.0 0.0 0.00 0.00 0.00 96 1016.4
20260831113611 71 0 0.0 0.0 0.00 0.00 0.00 96 1016.3
20260831113111 71 0 0.0 0.0 0.00 0.00 0.00 96 1016.3
20260831112622 71 0 0.0 0.0 0.00 0.00 0.00 96 1016.3
20260831112112 71 0 0.0 0.0 0.00 0.00 0.00 96 1016.3
20260831111619 71 0 0.0 0.0 0.00 0.00 0.00 96 1016.3
20260831111123 71 0 0.0 0.0 0.00 0.00 0.00 96 1016.3
20260831110610 71 0 0.0 0.0 0.00 0.00 0.00 96 1016.3
20260831110113 71 0 0.0 0.0 0.00 0.00 0.00 96 1016.3
20260831105507 71 0 0.0 0.0 0.00 0.00 0.00 96 1016.3
20260831105002 71 0 0.0 0.0 0.00 0.00 0.00 95 1016.3
20260831104505 71 0 0.0 0.0 0.00 0.00 0.00 95 1016.3
20260831104001 71 0 0.0 0.0 0.00 0.00 0.00 95 1016.2
20260831103503 71 0 0.0 0.0 0.00 0.00 0.00 95 1016.2
20260831103001 71 0 0.0 0.0 0.00 0.00 0.00 95 1016.2
20260831102501 71 0 0.0 0.0 0.00 0.00 0.00 95 1016.2
20260831102002 71 0 0.0 0.0 0.00 0.00 0.00 95 1016.2
20260831101501 71 0 0.0 0.0 0.00 0.00 0.00 95 1016.2
20260831101008 71 0 0.0 0.0 0.00 0.00 0.00 95 1016.0
20260831100502 71 0 0.0 0.0 0.00 0.00 0.00 95 1016.0
20260831100006 71 0 0.0 0.0 0.00 0.00 0.00 95 1016.0
20260831095502 72 0 0.0 0.0 0.00 0.00 0.00 95 1015.9
20260831095002 72 0 0.0 0.0 0.00 0.00 0.00 94 1015.9
20260831094501 72 0 0.0 0.0 0.00 0.00 0.00 94 1015.9
20260831094005 72 0 0.0 0.0 0.00 0.00 0.00 94 1015.8
20260831093502 72 0 0.0 0.0 0.00 0.00 0.00 94 1015.8
20260831093001 72 0 0.0 0.0 0.00 0.00 0.00 94 1015.8
20260831092059 72 0 0.0 0.0 0.00 0.00 0.00 94 1015.8
20260831091602 72 0 0.0 0.0 0.00 0.00 0.00 94 1015.8
20260831091102 72 0 0.0 0.0 0.00 0.00 0.00 94 1015.8
20260831090601 72 0 0.0 0.0 0.00 0.00 0.00 94 1015.8
20260831090059 72 0 0.0 0.0 0.00 0.00 0.00 94 1015.8
20260831085559 72 0 0.0 0.0 0.00 0.00 0.00 94 1015.8
20260831085059 72 0 0.0 0.0 0.00 0.00 0.00 93 1015.8
20260831084558 72 0 0.0 0.0 0.00 0.00 0.00 93 1015.8
20260831084102 72 0 0.0 0.0 0.00 0.00 0.00 93 1015.8
20260831083559 72 0 0.0 0.0 0.00 0.00 0.00 93 1015.8
20260831083059 72 0 0.0 0.0 0.00 0.00 0.00 93 1015.8
20260831082559 72 0 0.0 0.0 0.00 0.00 0.00 93 1015.8
20260831082059 72 0 0.0 0.0 0.00 0.00 0.00 93 1015.8
20260831081559 72 0 0.0 0.0 0.00 0.00 0.00 93 1015.8
20260831081059 72 0 0.0 0.0 0.00 0.00 0.00 93 1015.8
20260831080601 72 0 0.0 0.0 0.00 0.00 0.00 92 1015.8
20260831075609 72 0 0.0 0.0 0.00 0.00 0.00 92 1015.8
20260831075108 72 0 0.0 0.0 0.00 0.00 0.00 92 1015.8
20260831074608 72 0 0.0 0.0 0.00 0.00 0.00 92 1015.8
20260831073737 72 0 0.0 0.0 0.00 0.00 0.00 92 1015.8
20260831073236 72 0 0.0 0.0 0.00 0.00 0.00 92 1015.8
20260831072746 72 0 0.0 0.0 0.00 0.00 0.00 92 1015.8
20260831072235 72 0 0.0 0.0 0.00 0.00 0.00 92 1015.9
20260831071733 72 0 0.0 0.0 0.00 0.00 0.00 92 1015.9
20260831071238 72 0 0.0 0.0 0.00 0.00 0.00 92 1015.9
20260831070730 72 0 0.0 0.0 0.00 0.00 0.00 91 1016.1
20260831070052 73 0 0.0 0.0 0.00 0.00 0.00 91 1016.1
20260831065552 73 0 0.0 0.0 0.00 0.00 0.00 91 1016.3
20260831065051 73 0 0.0 0.0 0.00 0.00 0.00 91 1016.3
20260831064552 73 0 0.0 0.0 0.00 0.00 0.00 90 1016.3
20260831064052 73 0 0.0 0.0 0.00 0.00 0.00 90 1016.3
20260831063553 73 0 0.0 0.0 0.00 0.00 0.00 90 1016.3
20260831063052 73 0 0.0 0.0 0.00 0.00 0.00 90 1016.3
20260831062551 73 0 0.0 0.0 0.00 0.00 0.00 89 1016.2
20260831062054 74 0 0.0 0.0 0.00 0.00 0.00 89 1016.2
20260831061551 74 0 0.0 0.0 0.00 0.00 0.00 89 1016.2
20260831061051 74 0 0.0 0.0 0.00 0.00 0.00 89 1016.3
20260831060553 74 0 0.0 0.0 0.00 0.00 0.00 89 1016.3
20260831060059 74 0 0.0 0.0 0.00 0.00 0.00 89 1016.3
20260831055551 74 0 0.0 0.0 0.00 0.00 0.00 89 1016.4
20260831055052 74 0 0.0 0.0 0.00 0.00 0.00 89 1016.4
20260831054551 74 0 0.0 0.0 0.00 0.00 0.00 89 1016.4
20260831054051 74 0 0.0 0.0 0.00 0.00 0.00 89 1016.4
20260831053552 74 0 0.0 0.0 0.00 0.00 0.00 89 1016.4
20260831053051 74 0 0.0 0.0 0.00 0.00 0.00 89 1016.4
20260831052552 74 0 0.0 0.0 0.00 0.00 0.00 89 1016.4
20260831052051 74 0 0.0 0.0 0.00 0.00 0.00 89 1016.4
20260831051551 74 0 0.0 0.0 0.00 0.00 0.00 89 1016.4
20260831051052 74 0 0.0 0.0 0.00 0.00 0.00 89 1016.3
20260831050557 74 0 0.0 0.0 0.00 0.00 0.00 89 1016.3
20260831050051 74 0 0.0 0.0 0.00 0.00 0.00 89 1016.3
20260831045552 74 0 0.0 0.0 0.00 0.00 0.00 89 1016.3
20260831045051 74 0 0.0 0.0 0.00 0.00 0.00 89 1016.3
20260831044553 74 0 0.0 0.0 0.00 0.00 0.00 89 1016.3
20260831044052 74 0 0.0 0.0 0.00 0.00 0.00 89 1016.4
20260831043551 74 0 0.0 0.0 0.00 0.00 0.00 89 1016.4
20260831043053 74 0 0.0 0.0 0.00 0.00 0.00 89 1016.4
20260831042217 74 0 0.0 0.0 0.00 0.00 0.00 89 1016.5
20260831041713 74 0 0.0 0.0 0.00 0.00 0.00 89 1016.5
20260831041215 74 0 0.0 0.0 0.00 0.00 0.00 89 1016.5
20260831040717 74 0 0.0 0.0 0.00 0.00 0.00 89 1016.6
20260831040214 74 0 0.0 0.0 0.00 0.00 0.00 88 1016.6
20260831035716 74 0 0.0 0.0 0.00 0.00 0.00 88 1016.6
20260831035313 75 0 0.0 0.0 0.00 0.00 0.00 88 1016.7
20260831035218 75 0 0.0 0.0 0.00 0.00 0.00 88 1016.7
20260831034713 75 0 0.0 0.0 0.00 0.00 0.00 87 1016.7
20260831034213 75 0 0.0 0.0 0.00 0.00 0.00 87 1016.7
20260831033717 75 0 0.0 0.0 0.00 0.00 0.00 87 1016.8
20260831033217 75 0 0.0 0.0 0.00 0.00 0.00 87 1016.8
20260831032713 75 0 0.0 0.0 0.00 0.00 0.00 87 1016.8
20260831032213 75 0 0.0 0.0 0.00 0.00 0.00 86 1016.7
20260831031713 75 0 0.0 0.0 0.00 0.00 0.00 86 1016.7
20260831031219 75 0 0.0 0.0 0.00 0.00 0.00 86 1016.7
20260831030716 75 0 0.0 0.0 0.00 0.00 0.00 86 1016.9
20260831030229 75 0 0.0 0.0 0.00 0.00 0.00 86 1016.9
20260831025714 75 0 0.0 0.0 0.00 0.00 0.00 86 1016.9
20260831025215 75 0 0.0 0.0 0.00 0.00 0.00 86 1016.9
20260831024713 75 0 0.0 0.0 0.00 0.00 0.00 86 1016.9
20260831024217 75 0 0.0 0.0 0.00 0.00 0.00 86 1016.9
20260831023713 75 0 0.0 0.0 0.00 0.00 0.00 86 1016.9
20260831023214 76 0 0.0 0.0 0.00 0.00 0.00 86 1016.9
20260831022636 76 0 0.0 0.0 0.00 0.00 0.00 85 1016.9
20260831022138 76 0 0.0 0.0 0.00 0.00 0.00 85 1016.9
20260831021636 76 0 0.0 0.0 0.00 0.00 0.00 85 1016.9
20260831021136 76 0 0.0 0.0 0.00 0.00 0.00 85 1016.9
20260831020636 76 0 0.0 0.0 0.00 0.00 0.00 84 1016.9
20260831020136 76 0 0.0 0.0 0.00 0.00 0.00 84 1016.9
20260831015637 76 0 0.0 0.0 0.00 0.00 0.00 84 1016.9
20260831015139 76 0 0.0 0.0 0.00 0.00 0.00 84 1016.7
20260831014636 77 0 0.0 0.0 0.00 0.00 0.00 84 1016.7
20260831014137 77 0 0.0 0.0 0.00 0.00 0.00 84 1016.7
20260831013159 77 0 0.0 0.0 0.00 0.00 0.00 84 1016.5
20260831012658 77 0 0.0 0.0 0.00 0.00 0.00 84 1016.5
20260831012158 77 0 0.0 0.0 0.00 0.00 0.00 84 1016.4
20260831011657 77 0 0.0 0.0 0.00 0.00 0.00 83 1016.4
20260831011158 77 0 0.0 0.0 0.00 0.00 0.00 83 1016.4
20260831010658 77 0 0.0 0.0 0.00 0.00 0.00 83 1016.3
20260831010200 77 0 0.0 0.0 0.00 0.00 0.00 83 1016.3
20260831005701 77 0 0.0 0.0 0.00 0.00 0.00 83 1016.3
20260831005158 78 0 0.0 0.0 0.00 0.00 0.00 83 1016.2
20260831004657 78 0 0.0 0.0 0.00 0.00 0.00 83 1016.2
20260831004158 78 0 0.0 0.0 0.00 0.00 0.00 82 1016.2
20260831003657 78 0 0.0 0.0 0.00 0.00 0.00 82 1016.0
20260831003158 78 0 0.0 0.0 0.00 0.00 0.00 82 1016.0
20260831002700 78 0 0.0 0.0 0.00 0.00 0.00 81 1016.0
20260831002157 78 0 0.0 0.0 0.00 0.00 0.00 81 1016.2
20260831001658 79 0 0.0 1.0 0.00 0.00 0.00 81 1016.2
20260831001157 79 0 0.0 1.0 0.00 0.00 0.00 80 1016.2
20260831000657 79 0 0.0 0.0 0.00 0.00 0.00 80 1016.3
20260831000201 79 0 0.0 0.0 0.00 0.00 0.00 79 1016.3
20260830235657 80 0 0.0 0.0 0.00 0.00 0.00 79 1016.3
20260830235158 80 0 0.0 0.0 0.00 0.00 0.00 78 1016.3
20260830234658 80 0 0.0 0.0 0.00 0.00 0.00 78 1016.3
20260830234157 80 0 0.0 0.0 0.00 0.00 0.00 77 1016.3
20260830233658 81 0 0.0 0.0 0.00 0.00 0.00 76 1016.3
20260830233157 81 0 0.0 0.0 0.00 0.00 0.00 75 1016.3
20260830232659 81 0 0.0 0.0 0.00 0.00 0.00 74 1016.3
20260830232158 81 0 0.0 0.0 0.00 0.00 0.00 74 1016.1
20260830231657 81 0 0.0 0.0 0.00 0.00 0.00 74 1016.1
20260830231158 81 0 0.0 0.0 0.00 0.00 0.00 74 1016.1
20260830230658 81 0 0.0 0.0 0.00 0.00 0.00 74 1016.0
20260830225658 81 0 0.0 0.0 0.00 0.00 0.00 74 1016.0
20260830225157 82 0 0.0 0.0 0.00 0.00 0.00 74 1016.0
20260830224700 82 0 0.0 0.0 0.00 0.00 0.00 73 1016.0